Year,Month,Day,Hour,Minute,Value (Times are PST for temperature in C)
2016,06,17,00,00,12.80
2016,06,17,00,01,12.80
2016,06,17,00,02,12.70
2016,06,17,00,03,12.80
2016,06,17,00,04,12.80
2016,06,17,00,05,12.70
2016,06,17,00,06,12.70
2016,06,17,00,07,12.80
2016,06,17,00,08,12.80
2016,06,17,00,09,12.80
2016,06,17,00,10,12.80
2016,06,17,00,11,12.80
2016,06,17,00,12,12.80
2016,06,17,00,13,12.70
2016,06,17,00,14,12.70
2016,06,17,00,15,12.70
2016,06,17,00,16,12.70
2016,06,17,00,17,12.70
2016,06,17,00,18,12.60
2016,06,17,00,19,12.60
2016,06,17,00,20,12.60
2016,06,17,00,21,12.60
2016,06,17,00,22,12.50
2016,06,17,00,23,12.50
2016,06,17,00,24,12.50
2016,06,17,00,25,12.40
2016,06,17,00,26,12.40
2016,06,17,00,27,12.40
2016,06,17,00,28,12.30
2016,06,17,00,29,12.30
2016,06,17,00,30,12.30
2016,06,17,00,31,12.30
2016,06,17,00,32,12.20
2016,06,17,00,33,12.20
2016,06,17,00,34,12.10
2016,06,17,00,35,12.10
2016,06,17,00,36,12.00
2016,06,17,00,37,12.00
2016,06,17,00,38,11.90
2016,06,17,00,39,11.90
2016,06,17,00,40,11.90
2016,06,17,00,41,11.80
2016,06,17,00,42,11.80
2016,06,17,00,43,11.80
2016,06,17,00,44,11.80
2016,06,17,00,45,11.80
2016,06,17,00,46,11.80
2016,06,17,00,47,11.70
2016,06,17,00,48,11.70
2016,06,17,00,49,11.70
2016,06,17,00,50,11.70
2016,06,17,00,51,11.70
2016,06,17,00,52,11.70
2016,06,17,00,53,11.70
2016,06,17,00,54,11.70
2016,06,17,00,55,11.60
2016,06,17,00,56,11.60
2016,06,17,00,57,11.60
2016,06,17,00,58,11.60
2016,06,17,00,59,11.60
2016,06,17,01,00,11.60
2016,06,17,01,01,11.60
2016,06,17,01,02,11.60
2016,06,17,01,03,11.60
2016,06,17,01,04,11.60
2016,06,17,01,05,11.60
2016,06,17,01,06,11.60
2016,06,17,01,07,11.60
2016,06,17,01,08,11.60
2016,06,17,01,09,11.50
2016,06,17,01,10,11.40
2016,06,17,01,11,11.40
2016,06,17,01,12,11.40
2016,06,17,01,13,11.40
2016,06,17,01,14,11.40
2016,06,17,01,15,11.30
2016,06,17,01,16,11.30
2016,06,17,01,17,11.20
2016,06,17,01,18,11.20
2016,06,17,01,19,11.10
2016,06,17,01,20,11.10
2016,06,17,01,21,11.10
2016,06,17,01,22,11.10
2016,06,17,01,23,11.00
2016,06,17,01,24,10.90
2016,06,17,01,25,10.90
2016,06,17,01,26,10.90
2016,06,17,01,27,10.90
2016,06,17,01,28,10.80
2016,06,17,01,29,10.80
2016,06,17,01,30,10.80
2016,06,17,01,31,10.70
2016,06,17,01,32,10.70
2016,06,17,01,33,10.70
2016,06,17,01,34,10.60
2016,06,17,01,35,10.60
2016,06,17,01,36,10.60
2016,06,17,01,37,10.60
2016,06,17,01,38,10.60
2016,06,17,01,39,10.50
2016,06,17,01,40,10.40
2016,06,17,01,41,10.40
2016,06,17,01,42,10.40
2016,06,17,01,43,10.40
2016,06,17,01,44,10.40
2016,06,17,01,45,10.40
2016,06,17,01,46,10.30
2016,06,17,01,47,10.30
2016,06,17,01,48,10.30
2016,06,17,01,49,10.20
2016,06,17,01,50,10.20
2016,06,17,01,51,10.10
2016,06,17,01,52,10.10
2016,06,17,01,53,10.10
2016,06,17,01,54,10.00
2016,06,17,01,55,9.90
2016,06,17,01,56,9.90
2016,06,17,01,57,9.90
2016,06,17,01,58,9.80
2016,06,17,01,59,9.80
2016,06,17,02,00,9.70
2016,06,17,02,01,9.70
2016,06,17,02,02,9.70
2016,06,17,02,03,9.60
2016,06,17,02,04,9.60
2016,06,17,02,05,9.50
2016,06,17,02,06,9.50
2016,06,17,02,07,9.40
2016,06,17,02,08,9.40
2016,06,17,02,09,9.40
2016,06,17,02,10,9.30
2016,06,17,02,11,9.30
2016,06,17,02,12,9.30
2016,06,17,02,13,9.20
2016,06,17,02,14,9.20
2016,06,17,02,15,9.20
2016,06,17,02,16,9.20
2016,06,17,02,17,9.20
2016,06,17,02,18,9.20
2016,06,17,02,19,9.20
2016,06,17,02,20,9.20
2016,06,17,02,21,9.20
2016,06,17,02,22,9.20
2016,06,17,02,23,9.20
2016,06,17,02,24,9.20
2016,06,17,02,25,9.20
2016,06,17,02,26,9.20
2016,06,17,02,27,9.20
2016,06,17,02,28,9.20
2016,06,17,02,29,9.20
2016,06,17,02,30,9.20
2016,06,17,02,31,9.20
2016,06,17,02,32,9.10
2016,06,17,02,33,9.10
2016,06,17,02,34,9.10
2016,06,17,02,35,9.10
2016,06,17,02,36,9.00
2016,06,17,02,37,9.00
2016,06,17,02,38,9.00
2016,06,17,02,39,8.90
2016,06,17,02,40,8.90
2016,06,17,02,41,8.90
2016,06,17,02,42,8.90
2016,06,17,02,43,8.80
2016,06,17,02,44,8.80
2016,06,17,02,45,8.80
2016,06,17,02,46,8.70
2016,06,17,02,47,8.70
2016,06,17,02,48,8.70
2016,06,17,02,49,8.70
2016,06,17,02,50,8.70
2016,06,17,02,51,8.70
2016,06,17,02,52,8.70
2016,06,17,02,53,8.60
2016,06,17,02,54,8.60
2016,06,17,02,55,8.60
2016,06,17,02,56,8.60
2016,06,17,02,57,8.50
2016,06,17,02,58,8.50
2016,06,17,02,59,8.50
2016,06,17,03,00,8.50
2016,06,17,03,01,8.50
2016,06,17,03,02,8.50
2016,06,17,03,03,8.40
2016,06,17,03,04,8.40
2016,06,17,03,05,8.40
2016,06,17,03,06,8.40
2016,06,17,03,07,8.30
2016,06,17,03,08,8.30
2016,06,17,03,09,8.30
2016,06,17,03,10,8.30
2016,06,17,03,11,8.30
2016,06,17,03,12,8.30
2016,06,17,03,13,8.20
2016,06,17,03,14,8.20
2016,06,17,03,15,8.20
2016,06,17,03,16,8.20
2016,06,17,03,17,8.20
2016,06,17,03,18,8.20
2016,06,17,03,19,8.20
2016,06,17,03,20,8.20
2016,06,17,03,21,8.20
2016,06,17,03,22,8.20
2016,06,17,03,23,8.20
2016,06,17,03,24,8.20
2016,06,17,03,25,8.20
2016,06,17,03,26,8.20
2016,06,17,03,27,8.20
2016,06,17,03,28,8.20
2016,06,17,03,29,8.20
2016,06,17,03,30,8.20
2016,06,17,03,31,8.20
2016,06,17,03,32,8.10
2016,06,17,03,33,8.10
2016,06,17,03,34,8.10
2016,06,17,03,35,8.10
2016,06,17,03,36,8.10
2016,06,17,03,37,8.10
2016,06,17,03,38,8.10
2016,06,17,03,39,8.10
2016,06,17,03,40,8.10
2016,06,17,03,41,8.10
2016,06,17,03,42,8.10
2016,06,17,03,43,8.10
2016,06,17,03,44,8.10
2016,06,17,03,45,8.10
2016,06,17,03,46,8.10
2016,06,17,03,47,8.00
2016,06,17,03,48,8.00
2016,06,17,03,49,8.00
2016,06,17,03,50,8.00
2016,06,17,03,51,8.10
2016,06,17,03,52,8.10
2016,06,17,03,53,8.10
2016,06,17,03,54,8.10
2016,06,17,03,55,8.10
2016,06,17,03,56,8.10
2016,06,17,03,57,8.10
2016,06,17,03,58,8.10
2016,06,17,03,59,8.10
2016,06,17,04,00,8.10
2016,06,17,04,01,8.10
2016,06,17,04,02,8.10
2016,06,17,04,03,8.00
2016,06,17,04,04,8.00
2016,06,17,04,05,8.00
2016,06,17,04,06,8.00
2016,06,17,04,07,8.00
2016,06,17,04,08,8.10
2016,06,17,04,09,8.10
2016,06,17,04,10,8.10
2016,06,17,04,11,8.10
2016,06,17,04,12,8.10
2016,06,17,04,13,8.10
2016,06,17,04,14,8.20
2016,06,17,04,15,8.20
2016,06,17,04,16,8.20
2016,06,17,04,17,8.20
2016,06,17,04,18,8.20
2016,06,17,04,19,8.20
2016,06,17,04,20,8.20
2016,06,17,04,21,8.20
2016,06,17,04,22,8.20
2016,06,17,04,23,8.20
2016,06,17,04,24,8.20
2016,06,17,04,25,8.20
2016,06,17,04,26,8.20
2016,06,17,04,27,8.20
2016,06,17,04,28,8.20
2016,06,17,04,29,8.20
2016,06,17,04,30,8.20
2016,06,17,04,31,8.20
2016,06,17,04,32,8.20
2016,06,17,04,33,8.20
2016,06,17,04,34,8.20
2016,06,17,04,35,8.20
2016,06,17,04,36,8.20
2016,06,17,04,37,8.20
2016,06,17,04,38,8.20
2016,06,17,04,39,8.20
2016,06,17,04,40,8.20
2016,06,17,04,41,8.20
2016,06,17,04,42,8.20
2016,06,17,04,43,8.20
2016,06,17,04,44,8.20
2016,06,17,04,45,8.20
2016,06,17,04,46,8.20
2016,06,17,04,47,8.20
2016,06,17,04,48,8.20
2016,06,17,04,49,8.20
2016,06,17,04,50,8.20
2016,06,17,04,51,8.20
2016,06,17,04,52,8.20
2016,06,17,04,53,8.20
2016,06,17,04,54,8.20
2016,06,17,04,55,8.20
2016,06,17,04,56,8.20
2016,06,17,04,57,8.20
2016,06,17,04,58,8.20
2016,06,17,04,59,8.20
2016,06,17,05,00,8.20
2016,06,17,05,01,8.20
2016,06,17,05,02,8.20
2016,06,17,05,03,8.20
2016,06,17,05,04,8.20
2016,06,17,05,05,8.10
2016,06,17,05,06,8.10
2016,06,17,05,07,8.10
2016,06,17,05,08,8.10
2016,06,17,05,09,8.10
2016,06,17,05,10,8.00
2016,06,17,05,11,8.00
2016,06,17,05,12,8.00
2016,06,17,05,13,8.00
2016,06,17,05,14,7.90
2016,06,17,05,15,7.90
2016,06,17,05,16,7.90
2016,06,17,05,17,7.90
2016,06,17,05,18,7.90
2016,06,17,05,19,7.80
2016,06,17,05,20,7.80
2016,06,17,05,21,7.80
2016,06,17,05,22,7.80
2016,06,17,05,23,7.80
2016,06,17,05,24,7.80
2016,06,17,05,25,7.80
2016,06,17,05,26,7.80
2016,06,17,05,27,7.80
2016,06,17,05,28,7.80
2016,06,17,05,29,7.80
2016,06,17,05,30,7.80
2016,06,17,05,31,7.80
2016,06,17,05,32,7.80
2016,06,17,05,33,7.70
2016,06,17,05,34,7.70
2016,06,17,05,35,7.70
2016,06,17,05,36,7.70
2016,06,17,05,37,7.70
2016,06,17,05,38,7.70
2016,06,17,05,39,7.70
2016,06,17,05,40,7.70
2016,06,17,05,41,7.70
2016,06,17,05,42,7.70
2016,06,17,05,43,7.70
2016,06,17,05,44,7.70
2016,06,17,05,45,7.60
2016,06,17,05,46,7.60
2016,06,17,05,47,7.60
2016,06,17,05,48,7.60
2016,06,17,05,49,7.60
2016,06,17,05,50,7.60
2016,06,17,05,51,7.60
2016,06,17,05,52,7.60
2016,06,17,05,53,7.60
2016,06,17,05,54,7.60
2016,06,17,05,55,7.60
2016,06,17,05,56,7.60
2016,06,17,05,57,7.60
2016,06,17,05,58,7.60
2016,06,17,05,59,7.60
2016,06,17,06,00,7.60
2016,06,17,06,01,7.60
2016,06,17,06,02,7.60
2016,06,17,06,03,7.60
2016,06,17,06,04,7.70
2016,06,17,06,05,7.70
2016,06,17,06,06,7.70
2016,06,17,06,07,7.80
2016,06,17,06,08,7.80
2016,06,17,06,09,7.80
2016,06,17,06,10,7.80
2016,06,17,06,11,7.90
2016,06,17,06,12,7.90
2016,06,17,06,13,8.00
2016,06,17,06,14,8.10
2016,06,17,06,15,8.20
2016,06,17,06,16,8.20
2016,06,17,06,17,8.20
2016,06,17,06,18,8.30
2016,06,17,06,19,8.30
2016,06,17,06,20,8.40
2016,06,17,06,21,8.40
2016,06,17,06,22,8.50
2016,06,17,06,23,8.60
2016,06,17,06,24,8.60
2016,06,17,06,25,8.70
2016,06,17,06,26,8.70
2016,06,17,06,27,8.80
2016,06,17,06,28,8.90
2016,06,17,06,29,9.00
2016,06,17,06,30,9.00
2016,06,17,06,31,9.20
2016,06,17,06,32,9.20
2016,06,17,06,33,9.30
2016,06,17,06,34,9.40
2016,06,17,06,35,9.50
2016,06,17,06,36,9.70
2016,06,17,06,37,9.70
2016,06,17,06,38,9.90
2016,06,17,06,39,9.90
2016,06,17,06,40,10.10
2016,06,17,06,41,10.10
2016,06,17,06,42,10.10
2016,06,17,06,43,10.20
2016,06,17,06,44,10.30
2016,06,17,06,45,10.40
2016,06,17,06,46,10.40
2016,06,17,06,47,10.40
2016,06,17,06,48,10.50
2016,06,17,06,49,10.60
2016,06,17,06,50,10.60
2016,06,17,06,51,10.60
2016,06,17,06,52,10.60
2016,06,17,06,53,10.60
2016,06,17,06,54,10.60
2016,06,17,06,55,10.60
2016,06,17,06,56,10.60
2016,06,17,06,57,10.60
2016,06,17,06,58,10.60
2016,06,17,06,59,10.70
2016,06,17,07,00,10.70
2016,06,17,07,01,10.70
2016,06,17,07,02,10.80
2016,06,17,07,03,10.80
2016,06,17,07,04,10.80
2016,06,17,07,05,10.90
2016,06,17,07,06,10.90
2016,06,17,07,07,10.90
2016,06,17,07,08,10.90
2016,06,17,07,09,10.90
2016,06,17,07,10,11.00
2016,06,17,07,11,11.10
2016,06,17,07,12,11.10
2016,06,17,07,13,11.10
2016,06,17,07,14,11.10
2016,06,17,07,15,11.20
2016,06,17,07,16,11.30
2016,06,17,07,17,11.40
2016,06,17,07,18,11.40
2016,06,17,07,19,11.50
2016,06,17,07,20,11.60
2016,06,17,07,21,11.70
2016,06,17,07,22,11.80
2016,06,17,07,23,11.90
2016,06,17,07,24,11.90
2016,06,17,07,25,12.00
2016,06,17,07,26,12.10
2016,06,17,07,27,12.10
2016,06,17,07,28,12.20
2016,06,17,07,29,12.30
2016,06,17,07,30,12.30
2016,06,17,07,31,12.40
2016,06,17,07,32,12.50
2016,06,17,07,33,12.50
2016,06,17,07,34,12.60
2016,06,17,07,35,12.70
2016,06,17,07,36,12.80
2016,06,17,07,37,12.80
2016,06,17,07,38,12.90
2016,06,17,07,39,13.00
2016,06,17,07,40,13.00
2016,06,17,07,41,13.10
2016,06,17,07,42,13.20
2016,06,17,07,43,13.20
2016,06,17,07,44,13.30
2016,06,17,07,45,13.30
2016,06,17,07,46,13.40
2016,06,17,07,47,13.50
2016,06,17,07,48,13.60
2016,06,17,07,49,13.70
2016,06,17,07,50,13.70
2016,06,17,07,51,13.80
2016,06,17,07,52,13.80
2016,06,17,07,53,13.90
2016,06,17,07,54,13.90
2016,06,17,07,55,14.00
2016,06,17,07,56,14.00
2016,06,17,07,57,14.10
2016,06,17,07,58,14.10
2016,06,17,07,59,14.10
2016,06,17,08,00,14.20
2016,06,17,08,01,14.20
2016,06,17,08,02,14.20
2016,06,17,08,03,14.20
2016,06,17,08,04,14.30
2016,06,17,08,05,14.40
2016,06,17,08,06,14.50
2016,06,17,08,07,14.50
2016,06,17,08,08,14.60
2016,06,17,08,09,14.70
2016,06,17,08,10,14.70
2016,06,17,08,11,14.70
2016,06,17,08,12,14.80
2016,06,17,08,13,14.80
2016,06,17,08,14,14.80
2016,06,17,08,15,14.80
2016,06,17,08,16,14.90
2016,06,17,08,17,14.90
2016,06,17,08,18,15.00
2016,06,17,08,19,15.00
2016,06,17,08,20,15.00
2016,06,17,08,21,15.10
2016,06,17,08,22,15.10
2016,06,17,08,23,15.10
2016,06,17,08,24,15.20
2016,06,17,08,25,15.20
2016,06,17,08,26,15.30
2016,06,17,08,27,15.30
2016,06,17,08,28,15.30
2016,06,17,08,29,15.30
2016,06,17,08,30,15.30
2016,06,17,08,31,15.40
2016,06,17,08,32,15.40
2016,06,17,08,33,15.50
2016,06,17,08,34,15.50
2016,06,17,08,35,15.50
2016,06,17,08,36,15.50
2016,06,17,08,37,15.60
2016,06,17,08,38,15.70
2016,06,17,08,39,15.80
2016,06,17,08,40,15.80
2016,06,17,08,41,15.80
2016,06,17,08,42,15.90
2016,06,17,08,43,15.90
2016,06,17,08,44,16.00
2016,06,17,08,45,16.10
2016,06,17,08,46,16.10
2016,06,17,08,47,16.10
2016,06,17,08,48,16.20
2016,06,17,08,49,16.20
2016,06,17,08,50,16.30
2016,06,17,08,51,16.30
2016,06,17,08,52,16.30
2016,06,17,08,53,16.20
2016,06,17,08,54,16.20
2016,06,17,08,55,16.20
2016,06,17,08,56,16.10
2016,06,17,08,57,16.10
2016,06,17,08,58,16.10
2016,06,17,08,59,16.10
2016,06,17,09,00,16.10
2016,06,17,09,01,16.10
2016,06,17,09,02,16.10
2016,06,17,09,03,16.10
2016,06,17,09,04,16.10
2016,06,17,09,05,16.10
2016,06,17,09,06,16.10
2016,06,17,09,07,16.10
2016,06,17,09,08,16.10
2016,06,17,09,09,16.20
2016,06,17,09,10,16.20
2016,06,17,09,11,16.20
2016,06,17,09,12,16.30
2016,06,17,09,13,16.30
2016,06,17,09,14,16.40
2016,06,17,09,15,16.50
2016,06,17,09,16,16.60
2016,06,17,09,17,16.60
2016,06,17,09,18,16.70
2016,06,17,09,19,16.80
2016,06,17,09,20,16.80
2016,06,17,09,21,16.90
2016,06,17,09,22,17.00
2016,06,17,09,23,17.10
2016,06,17,09,24,17.10
2016,06,17,09,25,17.10
2016,06,17,09,26,17.10
2016,06,17,09,27,17.10
2016,06,17,09,28,17.00
2016,06,17,09,29,17.00
2016,06,17,09,30,17.00
2016,06,17,09,31,17.00
2016,06,17,09,32,17.10
2016,06,17,09,33,17.10
2016,06,17,09,34,17.20
2016,06,17,09,35,17.20
2016,06,17,09,36,17.30
2016,06,17,09,37,17.30
2016,06,17,09,38,17.30
2016,06,17,09,39,17.20
2016,06,17,09,40,17.20
2016,06,17,09,41,17.10
2016,06,17,09,42,17.00
2016,06,17,09,43,16.90
2016,06,17,09,44,16.90
2016,06,17,09,45,16.90
2016,06,17,09,46,16.80
2016,06,17,09,47,16.80
2016,06,17,09,48,16.80
2016,06,17,09,49,16.90
2016,06,17,09,50,16.90
2016,06,17,09,51,16.90
2016,06,17,09,52,17.00
2016,06,17,09,53,17.00
2016,06,17,09,54,17.10
2016,06,17,09,55,17.10
2016,06,17,09,56,17.20
2016,06,17,09,57,17.30
2016,06,17,09,58,17.30
2016,06,17,09,59,17.30
2016,06,17,10,00,17.30
2016,06,17,10,01,17.40
2016,06,17,10,02,17.40
2016,06,17,10,03,17.40
2016,06,17,10,04,17.40
2016,06,17,10,05,17.30
2016,06,17,10,06,17.30
2016,06,17,10,07,17.30
2016,06,17,10,08,17.20
2016,06,17,10,09,17.10
2016,06,17,10,10,17.10
2016,06,17,10,11,17.10
2016,06,17,10,12,17.10
2016,06,17,10,13,17.10
2016,06,17,10,14,17.20
2016,06,17,10,15,17.20
2016,06,17,10,16,17.20
2016,06,17,10,17,17.20
2016,06,17,10,18,17.20
2016,06,17,10,19,17.30
2016,06,17,10,20,17.30
2016,06,17,10,21,17.30
2016,06,17,10,22,17.30
2016,06,17,10,23,17.30
2016,06,17,10,24,17.30
2016,06,17,10,25,17.30
2016,06,17,10,26,17.40
2016,06,17,10,27,17.40
2016,06,17,10,28,17.40
2016,06,17,10,29,17.40
2016,06,17,10,30,17.40
2016,06,17,10,31,17.50
2016,06,17,10,32,17.50
2016,06,17,10,33,17.50
2016,06,17,10,34,17.50
2016,06,17,10,35,17.60
2016,06,17,10,36,17.70
2016,06,17,10,37,17.70
2016,06,17,10,38,17.80
2016,06,17,10,39,17.80
2016,06,17,10,40,17.90
2016,06,17,10,41,17.90
2016,06,17,10,42,18.00
2016,06,17,10,43,18.10
2016,06,17,10,44,18.10
2016,06,17,10,45,18.20
2016,06,17,10,46,18.20
2016,06,17,10,47,18.20
2016,06,17,10,48,18.30
2016,06,17,10,49,18.30
2016,06,17,10,50,18.20
2016,06,17,10,51,18.30
2016,06,17,10,52,18.40
2016,06,17,10,53,18.50
2016,06,17,10,54,18.50
2016,06,17,10,55,18.50
2016,06,17,10,56,18.40
2016,06,17,10,57,18.50
2016,06,17,10,58,18.50
2016,06,17,10,59,18.60
2016,06,17,11,00,18.60
2016,06,17,11,01,18.60
2016,06,17,11,02,18.60
2016,06,17,11,03,18.60
2016,06,17,11,04,18.60
2016,06,17,11,05,18.60
2016,06,17,11,06,18.70
2016,06,17,11,07,18.70
2016,06,17,11,08,18.70
2016,06,17,11,09,18.70
2016,06,17,11,10,18.70
2016,06,17,11,11,18.60
2016,06,17,11,12,18.60
2016,06,17,11,13,18.60
2016,06,17,11,14,18.60
2016,06,17,11,15,18.60
2016,06,17,11,16,18.70
2016,06,17,11,17,18.70
2016,06,17,11,18,18.80
2016,06,17,11,19,18.90
2016,06,17,11,20,18.90
2016,06,17,11,21,18.90
2016,06,17,11,22,18.90
2016,06,17,11,23,18.90
2016,06,17,11,24,18.90
2016,06,17,11,25,18.90
2016,06,17,11,26,18.80
2016,06,17,11,27,18.70
2016,06,17,11,28,18.60
2016,06,17,11,29,18.60
2016,06,17,11,30,18.60
2016,06,17,11,31,18.60
2016,06,17,11,32,18.50
2016,06,17,11,33,18.50
2016,06,17,11,34,18.50
2016,06,17,11,35,18.50
2016,06,17,11,36,18.50
2016,06,17,11,37,18.60
2016,06,17,11,38,18.70
2016,06,17,11,39,18.80
2016,06,17,11,40,18.90
2016,06,17,11,41,19.00
2016,06,17,11,42,19.10
2016,06,17,11,43,19.10
2016,06,17,11,44,19.10
2016,06,17,11,45,19.10
2016,06,17,11,46,19.10
2016,06,17,11,47,19.10
2016,06,17,11,48,19.10
2016,06,17,11,49,19.10
2016,06,17,11,50,19.20
2016,06,17,11,51,19.10
2016,06,17,11,52,19.10
2016,06,17,11,53,19.10
2016,06,17,11,54,19.20
2016,06,17,11,55,19.20
2016,06,17,11,56,19.10
2016,06,17,11,57,19.10
2016,06,17,11,58,18.90
2016,06,17,11,59,18.90
2016,06,17,12,00,18.80
2016,06,17,12,01,18.70
2016,06,17,12,02,18.70
2016,06,17,12,03,18.60
2016,06,17,12,04,18.60
2016,06,17,12,05,18.60
2016,06,17,12,06,18.60
2016,06,17,12,07,18.60
2016,06,17,12,08,18.60
2016,06,17,12,09,18.60
2016,06,17,12,10,18.70
2016,06,17,12,11,18.80
2016,06,17,12,12,18.90
2016,06,17,12,13,18.90
2016,06,17,12,14,19.00
2016,06,17,12,15,19.10
2016,06,17,12,16,19.10
2016,06,17,12,17,19.10
2016,06,17,12,18,19.10
2016,06,17,12,19,19.20
2016,06,17,12,20,19.20
2016,06,17,12,21,19.30
2016,06,17,12,22,19.40
2016,06,17,12,23,19.50
2016,06,17,12,24,19.50
2016,06,17,12,25,19.60
2016,06,17,12,26,19.50
2016,06,17,12,27,19.50
2016,06,17,12,28,19.50
2016,06,17,12,29,19.60
2016,06,17,12,30,19.70
2016,06,17,12,31,19.70
2016,06,17,12,32,19.70
2016,06,17,12,33,19.60
2016,06,17,12,34,19.50
2016,06,17,12,35,19.50
2016,06,17,12,36,19.50
2016,06,17,12,37,19.60
2016,06,17,12,38,19.70
2016,06,17,12,39,19.80
2016,06,17,12,40,19.90
2016,06,17,12,41,19.90
2016,06,17,12,42,19.90
2016,06,17,12,43,19.80
2016,06,17,12,44,19.70
2016,06,17,12,45,19.70
2016,06,17,12,46,19.70
2016,06,17,12,47,19.80
2016,06,17,12,48,19.80
2016,06,17,12,49,19.70
2016,06,17,12,50,19.70
2016,06,17,12,51,19.80
2016,06,17,12,52,19.90
2016,06,17,12,53,20.00
2016,06,17,12,54,20.10
2016,06,17,12,55,20.20
2016,06,17,12,56,20.20
2016,06,17,12,57,20.20
2016,06,17,12,58,20.30
2016,06,17,12,59,20.30
2016,06,17,13,00,20.40
2016,06,17,13,01,20.40
2016,06,17,13,02,20.30
2016,06,17,13,03,20.30
2016,06,17,13,04,20.30
2016,06,17,13,05,20.40
2016,06,17,13,06,20.50
2016,06,17,13,07,20.50
2016,06,17,13,08,20.60
2016,06,17,13,09,20.60
2016,06,17,13,10,20.70
2016,06,17,13,11,20.70
2016,06,17,13,12,20.80
2016,06,17,13,13,20.80
2016,06,17,13,14,20.80
2016,06,17,13,15,20.90
2016,06,17,13,16,21.00
2016,06,17,13,17,21.00
2016,06,17,13,18,21.10
2016,06,17,13,19,21.10
2016,06,17,13,20,21.10
2016,06,17,13,21,21.10
2016,06,17,13,22,21.20
2016,06,17,13,23,21.20
2016,06,17,13,24,21.30
2016,06,17,13,25,21.40
2016,06,17,13,26,21.40
2016,06,17,13,27,21.30
2016,06,17,13,28,21.40
2016,06,17,13,29,21.40
2016,06,17,13,30,21.40
2016,06,17,13,31,21.50
2016,06,17,13,32,21.60
2016,06,17,13,33,21.60
2016,06,17,13,34,21.60
2016,06,17,13,35,21.40
2016,06,17,13,36,21.10
2016,06,17,13,37,21.00
2016,06,17,13,38,20.80
2016,06,17,13,39,20.90
2016,06,17,13,40,20.90
2016,06,17,13,41,21.00
2016,06,17,13,42,21.10
2016,06,17,13,43,21.10
2016,06,17,13,44,21.10
2016,06,17,13,45,21.00
2016,06,17,13,46,20.80
2016,06,17,13,47,20.80
2016,06,17,13,48,20.80
2016,06,17,13,49,20.90
2016,06,17,13,50,20.90
2016,06,17,13,51,21.00
2016,06,17,13,52,21.10
2016,06,17,13,53,21.20
2016,06,17,13,54,21.30
2016,06,17,13,55,21.30
2016,06,17,13,56,21.50
2016,06,17,13,57,21.60
2016,06,17,13,58,21.60
2016,06,17,13,59,21.60
2016,06,17,14,00,21.70
2016,06,17,14,01,21.70
2016,06,17,14,02,21.80
2016,06,17,14,03,21.90
2016,06,17,14,04,21.90
2016,06,17,14,05,22.00
2016,06,17,14,06,22.10
2016,06,17,14,07,22.10
2016,06,17,14,08,22.20
2016,06,17,14,09,22.10
2016,06,17,14,10,22.00
2016,06,17,14,11,21.80
2016,06,17,14,12,21.70
2016,06,17,14,13,21.60
2016,06,17,14,14,21.60
2016,06,17,14,15,21.60
2016,06,17,14,16,21.50
2016,06,17,14,17,21.40
2016,06,17,14,18,21.30
2016,06,17,14,19,21.30
2016,06,17,14,20,21.40
2016,06,17,14,21,21.40
2016,06,17,14,22,21.40
2016,06,17,14,23,21.30
2016,06,17,14,24,21.30
2016,06,17,14,25,21.30
2016,06,17,14,26,21.30
2016,06,17,14,27,21.20
2016,06,17,14,28,21.10
2016,06,17,14,29,21.10
2016,06,17,14,30,21.10
2016,06,17,14,31,21.10
2016,06,17,14,32,21.20
2016,06,17,14,33,21.20
2016,06,17,14,34,21.20
2016,06,17,14,35,21.20
2016,06,17,14,36,21.20
2016,06,17,14,37,21.20
2016,06,17,14,38,21.20
2016,06,17,14,39,21.10
2016,06,17,14,40,21.10
2016,06,17,14,41,21.10
2016,06,17,14,42,21.10
2016,06,17,14,43,21.00
2016,06,17,14,44,20.90
2016,06,17,14,45,20.70
2016,06,17,14,46,20.50
2016,06,17,14,47,20.40
2016,06,17,14,48,20.40
2016,06,17,14,49,20.40
2016,06,17,14,50,20.40
2016,06,17,14,51,20.40
2016,06,17,14,52,20.40
2016,06,17,14,53,20.40
2016,06,17,14,54,20.30
2016,06,17,14,55,20.40
2016,06,17,14,56,20.40
2016,06,17,14,57,20.50
2016,06,17,14,58,20.50
2016,06,17,14,59,20.60
2016,06,17,15,00,20.70
2016,06,17,15,01,20.70
2016,06,17,15,02,20.70
2016,06,17,15,03,20.80
2016,06,17,15,04,20.80
2016,06,17,15,05,20.80
2016,06,17,15,06,20.70
2016,06,17,15,07,20.70
2016,06,17,15,08,20.70
2016,06,17,15,09,20.60
2016,06,17,15,10,20.60
2016,06,17,15,11,20.60
2016,06,17,15,12,20.60
2016,06,17,15,13,20.60
2016,06,17,15,14,20.70
2016,06,17,15,15,20.60
2016,06,17,15,16,20.60
2016,06,17,15,17,20.60
2016,06,17,15,18,20.60
2016,06,17,15,19,20.70
2016,06,17,15,20,20.70
2016,06,17,15,21,20.70
2016,06,17,15,22,20.70
2016,06,17,15,23,20.70
2016,06,17,15,24,20.70
2016,06,17,15,25,20.80
2016,06,17,15,26,20.90
2016,06,17,15,27,21.00
2016,06,17,15,28,21.10
2016,06,17,15,29,21.00
2016,06,17,15,30,20.90
2016,06,17,15,31,20.80
2016,06,17,15,32,20.70
2016,06,17,15,33,20.70
2016,06,17,15,34,20.60
2016,06,17,15,35,20.60
2016,06,17,15,36,20.60
2016,06,17,15,37,20.60
2016,06,17,15,38,20.60
2016,06,17,15,39,20.60
2016,06,17,15,40,20.60
2016,06,17,15,41,20.60
2016,06,17,15,42,20.60
2016,06,17,15,43,20.60
2016,06,17,15,44,20.50
2016,06,17,15,45,20.50
2016,06,17,15,46,20.60
2016,06,17,15,47,20.60
2016,06,17,15,48,20.60
2016,06,17,15,49,20.60
2016,06,17,15,50,20.70
2016,06,17,15,51,20.70
2016,06,17,15,52,20.80
2016,06,17,15,53,20.90
2016,06,17,15,54,21.00
2016,06,17,15,55,21.00
2016,06,17,15,56,21.00
2016,06,17,15,57,21.00
2016,06,17,15,58,21.00
2016,06,17,15,59,21.00
2016,06,17,16,00,21.10
2016,06,17,16,01,21.10
2016,06,17,16,02,21.10
2016,06,17,16,03,21.10
2016,06,17,16,04,21.10
2016,06,17,16,05,21.00
2016,06,17,16,06,20.80
2016,06,17,16,07,20.70
2016,06,17,16,08,20.70
2016,06,17,16,09,20.60
2016,06,17,16,10,20.60
2016,06,17,16,11,20.60
2016,06,17,16,12,20.60
2016,06,17,16,13,20.60
2016,06,17,16,14,20.60
2016,06,17,16,15,20.60
2016,06,17,16,16,20.60
2016,06,17,16,17,20.60
2016,06,17,16,18,20.50
2016,06,17,16,19,20.50
2016,06,17,16,20,20.30
2016,06,17,16,21,20.30
2016,06,17,16,22,20.30
2016,06,17,16,23,20.30
2016,06,17,16,24,20.40
2016,06,17,16,25,20.40
2016,06,17,16,26,20.40
2016,06,17,16,27,20.50
2016,06,17,16,28,20.50
2016,06,17,16,29,20.40
2016,06,17,16,30,20.40
2016,06,17,16,31,20.40
2016,06,17,16,32,20.40
2016,06,17,16,33,20.40
2016,06,17,16,34,20.50
2016,06,17,16,35,20.50
2016,06,17,16,36,20.50
2016,06,17,16,37,20.60
2016,06,17,16,38,20.60
2016,06,17,16,39,20.60
2016,06,17,16,40,20.60
2016,06,17,16,41,20.50
2016,06,17,16,42,20.50
2016,06,17,16,43,20.50
2016,06,17,16,44,20.30
2016,06,17,16,45,20.20
2016,06,17,16,46,20.10
2016,06,17,16,47,19.90
2016,06,17,16,48,19.80
2016,06,17,16,49,19.80
2016,06,17,16,50,19.70
2016,06,17,16,51,19.50
2016,06,17,16,52,19.20
2016,06,17,16,53,19.00
2016,06,17,16,54,18.80
2016,06,17,16,55,18.70
2016,06,17,16,56,18.50
2016,06,17,16,57,18.40
2016,06,17,16,58,18.30
2016,06,17,16,59,18.20
2016,06,17,17,00,18.30
2016,06,17,17,01,18.30
2016,06,17,17,02,18.20
2016,06,17,17,03,18.20
2016,06,17,17,04,18.10
2016,06,17,17,05,18.00
2016,06,17,17,06,17.90
2016,06,17,17,07,17.90
2016,06,17,17,08,17.90
2016,06,17,17,09,18.00
2016,06,17,17,10,18.10
2016,06,17,17,11,18.10
2016,06,17,17,12,18.20
2016,06,17,17,13,18.20
2016,06,17,17,14,18.20
2016,06,17,17,15,18.20
2016,06,17,17,16,18.20
2016,06,17,17,17,18.20
2016,06,17,17,18,18.10
2016,06,17,17,19,18.10
2016,06,17,17,20,18.10
2016,06,17,17,21,18.10
2016,06,17,17,22,18.10
2016,06,17,17,23,18.10
2016,06,17,17,24,18.10
2016,06,17,17,25,18.10
2016,06,17,17,26,18.00
2016,06,17,17,27,17.80
2016,06,17,17,28,17.60
2016,06,17,17,29,17.40
2016,06,17,17,30,17.30
2016,06,17,17,31,17.20